SWA2314 KDEN-KSLC

Flight info

Callsign SWA2314
Flight time N/A
Altitude 30000
Route ZIMMR4 CHNGY EKR PITTT2
Aircraft B738/M-SDE2E3FGHIRWXY/LB1

Departure

Time N/A
Airport Denver International Airport (KDEN)

Arrival

Time 2026-05-05 03:15
Airport Salt Lake City International Airport (KSLC)
Time Latitude Longitude Altitude Speed Heading
2026-05-05 02:47 40.04857 -107.37975 29871 ft 420 kts 272°
2026-05-05 02:48 40.05919 -107.68451 29836 ft 420 kts 272°
2026-05-05 02:48 40.06420 -107.83685 29952 ft 420 kts 272°
2026-05-05 02:48 40.06948 -107.98909 29939 ft 419 kts 273°
2026-05-05 02:49 40.08377 -108.29268 29777 ft 419 kts 273°
2026-05-05 02:49 40.11311 -109.00147 29668 ft 421 kts 272°
2026-05-05 02:50 40.15165 -110.22750 29891 ft 424 kts 271°
2026-05-05 02:50 40.15465 -110.52215 29807 ft 427 kts 268°
2026-05-05 02:51 40.15212 -110.59465 29852 ft 425 kts 266°
2026-05-05 02:51 40.15060 -110.67189 29879 ft 426 kts 267°
2026-05-05 02:52 40.14908 -110.74932 29790 ft 427 kts 266°
2026-05-05 02:52 40.14818 -110.78807 29348 ft 423 kts 266°
2026-05-05 02:52 40.14723 -110.82616 28821 ft 416 kts 266°
2026-05-05 02:52 40.14625 -110.86374 28303 ft 411 kts 266°
2026-05-05 02:53 40.14526 -110.90090 27792 ft 407 kts 266°
2026-05-05 02:53 40.14426 -110.93774 27245 ft 403 kts 266°
2026-05-05 02:53 40.14325 -110.97421 26751 ft 402 kts 266°
2026-05-05 02:53 40.14223 -111.01091 26225 ft 406 kts 266°
2026-05-05 02:54 40.14120 -111.04782 25703 ft 405 kts 266°
2026-05-05 02:54 40.14017 -111.08442 25185 ft 402 kts 266°
2026-05-05 02:54 40.13914 -111.12072 24676 ft 398 kts 266°
2026-05-05 02:54 40.13810 -111.15682 24141 ft 396 kts 266°
2026-05-05 02:55 40.13706 -111.19274 23621 ft 395 kts 266°
2026-05-05 02:55 40.13606 -111.22855 23020 ft 394 kts 267°
2026-05-05 02:55 40.13536 -111.26423 22449 ft 392 kts 268°
2026-05-05 02:55 40.13482 -111.29969 21912 ft 388 kts 268°
2026-05-05 02:56 40.13429 -111.33480 21410 ft 385 kts 268°
2026-05-05 02:56 40.13373 -111.36963 20919 ft 382 kts 268°
2026-05-05 02:56 40.13313 -111.40419 20440 ft 379 kts 268°
2026-05-05 02:56 40.13252 -111.43845 19937 ft 376 kts 268°
2026-05-05 02:57 40.13190 -111.47246 19465 ft 373 kts 268°
2026-05-05 02:57 40.13126 -111.50623 19037 ft 370 kts 268°
2026-05-05 02:57 40.13121 -111.53936 18857 ft 361 kts 275°
2026-05-05 02:57 40.13782 -111.57071 18707 ft 356 kts 292°
2026-05-05 02:58 40.14869 -111.59993 18578 ft 361 kts 295°
2026-05-05 02:58 40.15626 -111.61947 18475 ft 365 kts 295°
2026-05-05 02:58 40.16766 -111.64934 18319 ft 368 kts 295°
2026-05-05 02:58 40.17888 -111.67936 18149 ft 366 kts 294°
2026-05-05 02:59 40.18993 -111.70922 17984 ft 364 kts 294°
2026-05-05 02:59 40.20090 -111.73898 17805 ft 362 kts 294°
2026-05-05 02:59 40.21179 -111.76858 17662 ft 361 kts 294°
2026-05-05 02:59 40.22265 -111.79811 17507 ft 359 kts 294°
2026-05-05 03:00 40.23345 -111.82752 17348 ft 359 kts 294°
2026-05-05 03:00 40.24426 -111.85692 17202 ft 358 kts 294°
2026-05-05 03:00 40.25504 -111.88629 17052 ft 358 kts 294°
2026-05-05 03:00 40.26583 -111.91569 16895 ft 357 kts 295°
2026-05-05 03:01 40.27994 -111.94208 16529 ft 357 kts 315°
2026-05-05 03:01 40.29996 -111.96098 16111 ft 356 kts 328°
2026-05-05 03:01 40.32153 -111.97692 15596 ft 356 kts 330°
2026-05-05 03:01 40.34321 -111.99259 15114 ft 355 kts 330°
2026-05-05 03:02 40.36470 -112.00841 14687 ft 353 kts 329°
2026-05-05 03:02 40.38598 -112.02437 14262 ft 350 kts 329°
2026-05-05 03:02 40.40683 -112.04012 13659 ft 344 kts 329°
2026-05-05 03:02 40.42898 -112.05184 12772 ft 347 kts 350°
2026-05-05 03:03 40.45297 -112.05506 12388 ft 350 kts 354°
2026-05-05 03:03 40.47711 -112.05783 12239 ft 345 kts 354°
2026-05-05 03:03 40.50085 -112.06071 12103 ft 339 kts 354°
2026-05-05 03:03 40.52411 -112.06365 11999 ft 334 kts 354°
2026-05-05 03:04 40.54709 -112.06665 11976 ft 331 kts 354°
2026-05-05 03:04 40.57033 -112.06973 11973 ft 333 kts 353°
2026-05-05 03:04 40.59313 -112.07277 11968 ft 333 kts 353°
2026-05-05 03:04 40.61614 -112.07584 11956 ft 333 kts 353°
2026-05-05 03:05 40.63948 -112.07893 11962 ft 333 kts 354°
2026-05-05 03:05 40.66224 -112.08163 11958 ft 333 kts 354°
2026-05-05 03:05 40.68530 -112.08425 11959 ft 332 kts 354°
2026-05-05 03:05 40.70816 -112.08686 11817 ft 328 kts 354°
2026-05-05 03:06 40.73079 -112.08947 11848 ft 311 kts 354°
2026-05-05 03:06 40.75193 -112.09192 11515 ft 301 kts 354°
2026-05-05 03:06 40.77254 -112.09436 10940 ft 300 kts 354°
2026-05-05 03:06 40.79345 -112.09685 10377 ft 299 kts 354°
2026-05-05 03:07 40.81431 -112.09933 9953 ft 301 kts 354°
2026-05-05 03:07 40.83493 -112.10179 9787 ft 295 kts 354°
2026-05-05 03:07 40.85529 -112.10436 9485 ft 293 kts 354°
2026-05-05 03:07 40.87552 -112.10702 9180 ft 292 kts 353°
2026-05-05 03:08 40.89568 -112.10969 8994 ft 290 kts 354°
2026-05-05 03:08 40.91566 -112.11223 8925 ft 288 kts 354°
2026-05-05 03:08 40.93557 -112.11474 8729 ft 286 kts 354°
2026-05-05 03:08 40.95543 -112.11486 8334 ft 288 kts
2026-05-05 03:09 40.97536 -112.11466 8014 ft 287 kts 352°
2026-05-05 03:09 40.99513 -112.11588 7707 ft 285 kts 10°
2026-05-05 03:09 41.01331 -112.10616 7416 ft 283 kts 37°
2026-05-05 03:09 41.02593 -112.08717 7145 ft 279 kts 64°
2026-05-05 03:10 41.03051 -112.06229 7020 ft 276 kts 92°
2026-05-05 03:10 41.02580 -112.03758 6980 ft 280 kts 118°
2026-05-05 03:10 41.01372 -112.01820 6979 ft 275 kts 137°
2026-05-05 03:10 40.99882 -112.00270 6957 ft 271 kts 152°
2026-05-05 03:11 40.98068 -111.99672 6993 ft 264 kts 175°
2026-05-05 03:11 40.96262 -111.99503 6980 ft 259 kts 174°
2026-05-05 03:11 40.94504 -111.99301 6871 ft 247 kts 174°
2026-05-05 03:11 40.92833 -111.99103 6551 ft 232 kts 174°
2026-05-05 03:12 40.91271 -111.98920 6284 ft 218 kts 174°
2026-05-05 03:12 40.89816 -111.98751 6014 ft 203 kts 174°
2026-05-05 03:12 40.88455 -111.98592 5743 ft 190 kts 174°
2026-05-05 03:12 40.87180 -111.98444 5466 ft 178 kts 174°
2026-05-05 03:13 40.85987 -111.98305 5210 ft 167 kts 173°
2026-05-05 03:13 40.84834 -111.98170 5013 ft 166 kts 172°
2026-05-05 03:13 40.83699 -111.98038 4827 ft 160 kts 173°
2026-05-05 03:13 40.82599 -111.97910 4597 ft 157 kts 172°
2026-05-05 03:14 40.81507 -111.97782 4420 ft 158 kts 174°
2026-05-05 03:14 40.80408 -111.97659 4203 ft 157 kts 173°
2026-05-05 03:14 40.79411 -111.97542 4184 ft 124 kts 175°
2026-05-05 03:14 40.78696 -111.97458 4189 ft 85 kts 174°
2026-05-05 03:15 40.78271 -111.97410 4187 ft 39 kts 181°
2026-05-05 03:15 40.78081 -111.97468 4188 ft 17 kts 204°
2026-05-05 03:15 40.78021 -111.97507 4188 ft 0 kts 206°
2026-05-05 03:15 40.78020 -111.97508 4188 ft 2 kts 206°
2026-05-05 03:16 40.78012 -111.97513 4190 ft 0 kts 206°
2026-05-05 03:17 40.78001 -111.97519 4185 ft 5 kts 201°
2026-05-05 03:17 40.77975 -111.97528 4185 ft 0 kts 190°
2026-05-05 03:19 40.77971 -111.97582 4188 ft 6 kts 315°
2026-05-05 03:19 40.78000 -111.97594 4188 ft 0 kts 352°
2026-05-05 03:20 40.78001 -111.97594 4188 ft 1 kts 353°
2026-05-05 03:20 40.78033 -111.97598 4188 ft 7 kts 354°
2026-05-05 03:21 40.78086 -111.97605 4187 ft 8 kts 355°
2026-05-05 03:21 40.78160 -111.97613 4187 ft 14 kts 355°
2026-05-05 03:21 40.78257 -111.97624 4187 ft 14 kts 355°
2026-05-05 03:21 40.78350 -111.97635 4187 ft 13 kts 355°
2026-05-05 03:22 40.78440 -111.97646 4187 ft 13 kts 354°
2026-05-05 03:22 40.78527 -111.97656 4187 ft 12 kts 355°
2026-05-05 03:22 40.78613 -111.97666 4188 ft 12 kts 355°
2026-05-05 03:22 40.78638 -111.97669 4186 ft 1 kts 355°
2026-05-05 03:23 40.78654 -111.97670 4188 ft 4 kts 355°
2026-05-05 03:23 40.78685 -111.97674 4187 ft 5 kts 355°
2026-05-05 03:23 40.78718 -111.97678 4187 ft 6 kts 355°
2026-05-05 03:23 40.78784 -111.97685 4190 ft 14 kts 355°
2026-05-05 03:24 40.78895 -111.97697 4190 ft 16 kts 355°
2026-05-05 03:24 40.79006 -111.97712 4190 ft 16 kts 354°
2026-05-05 03:24 40.79092 -111.97726 4190 ft 6 kts 342°